Location: Avully
(45.9633°N, 6.0228°E)
Time: 21:52:45
(UTC+00:00)

Cosmos 2360 Rocket - Pass Details

Date: 16 August 2024
Orbit: 834 x 843 km, 71.0° (Epoch: 10 September)

Event Time Altitude Azimuth Distance (km) Brightness Sun altitude
Exits shadow 01:18:33 13° 288° (WNW) 2,280 4.3 -26.4°
Maximum altitude 01:21:10 17° 319° (NW) 2,035 4.4 -26.2°
Drops below altitude 10° 01:24:42 10° 358° (N) 2,468 5.4 -25.9°
Sets 01:28:08 0° 19° (NNE) 3,405 6.6 -25.6°
